Αρχική σελίδα
METAR-TAF:

METAR-TAF

Αεροδρόμια :

Στίλγουοτερ, Οκλαχόμα, Ηνωμένες Πολιτείες Αμερικής

γεωγραφικό πλάτος: 36-09-44N, γεωγραφικό μήκος: 097-05-21W, υψόμετρο: 300 μ

Παρών καιρός

Η αναφορά έγινε 26 λεπτά πριν, στις 11:53 UTC
Άνεμος 3 kt από Α/BA
Θερμοκρασία 3°C
Υγρασία 65%
Πίεση 1022 hPa
Ορατότητα: 16.1 χλμ
Καθαρός ουρανός

METAR: KSWO 161153Z AUTO 07003KT 10SM CLR 03/M03 A3019 RMK AO2 SLP224 T00331033 10039 21011 55001 $

Χρόνος: 06:19 (12:19 UTC)


TAF: λείπει

Μετεωρολογικές αναφορές και προγνώσεις για περισσότερα από 4000 αεροδρόμια (δελτία METAR και TAF).

Οι διαθέσιμοι σταθμοί απεικονίζονται στο χάρτη με κίτρινες και κόκκινες κουκκίδες.

Μετακινήστε το ποντίκι πάνω από τις κουκκίδες για να δείτε το όνομα του σταθμού.

Στη συνέχεια, κάντε κλικ για να δείτε τις μετεωρολογικές αναφορές και τις προγνώσεις καιρού.

Για να αλλάξετε το χάρτη: κάντε κλικ στα πράσινα κουμπιά με τον μαύρο σταυρό για να ζουμάρετε, στο πράσινο κουμπί με την παύλα για να αφαιρέσετε το ζουμ ή στα πράσινα βέλη για να αντιπαραβάλλετε χάρτες.


METAR-TAF: